Location: Cartignies
(50.0929°N, 3.8447°E)
Time: 14:13:40
(UTC+00:00)

Cosmos 292 Rocket - Pass Details

Date: 12 January 2026
Orbit: 663 x 681 km, 74.0° (Epoch: 15 February)

Event Time Altitude Azimuth Distance (km) Brightness Sun altitude
Rises 18:24:26 0° 337° (NNW) 3,014 7.3 -21.3°
Reaches altitude 10° 18:26:45 10° 339° (NNW) 2,096 6.4 -21.7°
Maximum altitude 18:31:27 76° 65° (ENE) 689 3.5 -22.4°
Enters shadow 18:32:34 51° 137° (SE) 832 3.9 -22.6°
